User: anonymous   Login
Location: Kervinic
(48.4279°N, 4.7373°W)
Time: 09:45:28
(UTC+00:00)
Language:

Terra - Orbit

View from above orbital plane
View from above orbital plane
View from above satellite
View from above satellite

Ground track
Ground track

The orbit data is extracted from the following two-line orbital elements,

1 25994U 99068A   20183.93437813 +.00000060 +00000-0 +23267-4 0  9993
2 25994 098.2135 258.0185 0001460 094.0138 266.1219 14.57113420092426
Epoch (UTC): 01 July 2020 22:25:30
Eccentricity: 0.0001460
inclination: 98.2135°
perigee height: 701 km
apogee height: 703 km
right ascension of ascending node: 258.0185°
argument of perigee: 94.0138°
revolutions per day: 14.57113420
mean anomaly at epoch: 266.1219°
orbit number at epoch: 9242

The dashed part of the orbit path shows where the satellite is in the earth's shadow,  

DLR